When you browse on this site, cookies collect data to enhance your experience and personalize the content and advertising you see.
Visit our Privacy Policy to learn more. By continuing to use the site, you agree to this use of cookies and data.
  • en Suisse
  • Liste des pays
  • À 7 jours
  • Température de l'eau
  • Carte satellitaire
  • Carte météo
  • Widgets météo
  • user-avatar
    Se connecter

    Météo par heure à Eisenach

    Ce jour, 24 Mai, Vendredi

    Heure Température Précipitation Vent Pression Humidité
    00:00 +12°C° 0 mm 1 m/s 742 mmHg 87%
    01:00 +11°C° 0 mm 1 m/s 742 mmHg 88%
    02:00 +11°C° 0 mm 1 m/s 741 mmHg 89%
    03:00 +10°C° 0 mm 1 m/s 741 mmHg 90%
    04:00 +10°C° 0 mm 1 m/s 741 mmHg 90%
    05:00 +12°C° 0 mm 1 m/s 741 mmHg 86%
    06:00 +13°C° 0 mm 1 m/s 741 mmHg 82%
    07:00 +15°C° 0 mm 1 m/s 741 mmHg 78%
    08:00 +16°C° 0 mm 1 m/s 741 mmHg 72%
    09:00 +18°C° 0 mm 2 m/s 741 mmHg 67%
    10:00 +20°C° 0 mm 2 m/s 741 mmHg 61%
    11:00 +20°C° 0.1 mm 2 m/s 741 mmHg 59%
    12:00 +21°C° 0.1 mm 2 m/s 741 mmHg 57%
    13:00 +23°C° 0.1 mm 2 m/s 740 mmHg 54%
    14:00 +23°C° 0.1 mm 1 m/s 740 mmHg 55%
    15:00 +23°C° 0.1 mm 1 m/s 740 mmHg 55%
    16:00 +23°C° 0.1 mm 1 m/s 739 mmHg 56%
    17:00 +21°C° 0.4 mm 1 m/s 739 mmHg 66%
    18:00 +20°C° 0.4 mm 1 m/s 739 mmHg 76%
    19:00 +18°C° 0.4 mm 2 m/s 739 mmHg 86%
    20:00 +16°C° 0 mm 1 m/s 739 mmHg 87%
    21:00 +15°C° 0 mm 1 m/s 739 mmHg 89%
    22:00 +14°C° 0 mm 1 m/s 739 mmHg 90%
    23:00 +13°C° 0 mm 1 m/s 739 mmHg 91%

    Demain, 25 Mai, Samedi

    Heure Température Précipitation Vent Pression Humidité
    00:00 +13°C° 0 mm 1 m/s 739 mmHg 92%
    01:00 +13°C° 0 mm 1 m/s 740 mmHg 93%
    02:00 +12°C° 0 mm 1 m/s 740 mmHg 94%
    03:00 +12°C° 0 mm 1 m/s 740 mmHg 95%
    04:00 +11°C° 0 mm 1 m/s 740 mmHg 96%
    05:00 +12°C° 0 mm 1 m/s 740 mmHg 95%
    06:00 +13°C° 0 mm 1 m/s 740 mmHg 93%
    07:00 +14°C° 0 mm 1 m/s 740 mmHg 92%
    08:00 +15°C° 0 mm 2 m/s 740 mmHg 85%
    09:00 +16°C° 0 mm 2 m/s 740 mmHg 78%
    10:00 +17°C° 0 mm 2 m/s 741 mmHg 72%
    11:00 +18°C° 0 mm 2 m/s 740 mmHg 67%
    12:00 +18°C° 0 mm 3 m/s 740 mmHg 63%
    13:00 +19°C° 0 mm 3 m/s 740 mmHg 59%
    14:00 +19°C° 0 mm 3 m/s 740 mmHg 61%
    15:00 +19°C° 0 mm 3 m/s 740 mmHg 63%
    16:00 +18°C° 0 mm 3 m/s 739 mmHg 64%
    17:00 +17°C° 0 mm 3 m/s 739 mmHg 69%
    18:00 +16°C° 0 mm 3 m/s 739 mmHg 74%
    19:00 +15°C° 0 mm 2 m/s 739 mmHg 79%
    20:00 +14°C° 0 mm 2 m/s 739 mmHg 83%
    21:00 +12°C° 0 mm 1 m/s 739 mmHg 87%
    22:00 +11°C° 0 mm 1 m/s 740 mmHg 91%
    23:00 +9°C° 0 mm 0 m/s 739 mmHg 91%

    Après-demain, 26 Mai, Dimanche

    Heure Température Précipitation Vent Pression Humidité
    00:00 +9°C° 0 mm 0 m/s 739 mmHg 92%
    01:00 +8°C° 0 mm 0 m/s 739 mmHg 92%
    02:00 +8°C° 0 mm 0 m/s 739 mmHg 93%
    03:00 +9°C° 0 mm 1 m/s 739 mmHg 94%
    04:00 +9°C° 0 mm 1 m/s 739 mmHg 94%
    05:00 +10°C° 0 mm 1 m/s 739 mmHg 92%
    06:00 +10°C° 0 mm 2 m/s 739 mmHg 89%
    07:00 +13°C° 0 mm 2 m/s 739 mmHg 86%
    08:00 +13°C° 0 mm 3 m/s 739 mmHg 80%
    09:00 +14°C° 0 mm 4 m/s 739 mmHg 75%
    10:00 +15°C° 0 mm 5 m/s 739 mmHg 69%
    11:00 +16°C° 0 mm 5 m/s 739 mmHg 68%
    12:00 +16°C° 0 mm 5 m/s 739 mmHg 67%
    13:00 +17°C° 0 mm 6 m/s 739 mmHg 67%
    14:00 +15°C° 0.1 mm 5 m/s 738 mmHg 74%
    15:00 +14°C° 0.1 mm 5 m/s 738 mmHg 81%
    16:00 +12°C° 0.1 mm 5 m/s 738 mmHg 88%
    17:00 +13°C° 0 mm 5 m/s 738 mmHg 88%
    18:00 +14°C° 0 mm 4 m/s 737 mmHg 87%
    19:00 +14°C° 0 mm 4 m/s 737 mmHg 87%
    20:00 +14°C° 0 mm 4 m/s 737 mmHg 89%
    21:00 +13°C° 0 mm 4 m/s 737 mmHg 92%
    22:00 +13°C° 0 mm 4 m/s 737 mmHg 95%
    23:00 +13°C° 0 mm 4 m/s 736 mmHg 95%

    27 Mai, Lundi

    Heure Température Précipitation Vent Pression Humidité
    00:00 +13°C° 0 mm 4 m/s 736 mmHg 94%
    01:00 +13°C° 0 mm 5 m/s 736 mmHg 94%
    02:00 +13°C° 0 mm 5 m/s 735 mmHg 94%
    03:00 +12°C° 0 mm 5 m/s 735 mmHg 94%
    04:00 +12°C° 0 mm 5 m/s 735 mmHg 93%
    05:00 +12°C° 0.1 mm 5 m/s 735 mmHg 92%
    06:00 +13°C° 0.1 mm 6 m/s 735 mmHg 90%
    07:00 +13°C° 0.1 mm 6 m/s 735 mmHg 89%
    08:00 +13°C° 0.3 mm 6 m/s 735 mmHg 91%
    09:00 +13°C° 0.3 mm 5 m/s 735 mmHg 93%
    10:00 +13°C° 0.3 mm 5 m/s 735 mmHg 94%
    11:00 +14°C° 0.3 mm 5 m/s 735 mmHg 89%
    12:00 +15°C° 0.3 mm 5 m/s 735 mmHg 83%
    13:00 +16°C° 0.3 mm 5 m/s 735 mmHg 78%
    14:00 +17°C° 0.3 mm 5 m/s 735 mmHg 75%
    15:00 +17°C° 0.3 mm 5 m/s 735 mmHg 72%
    16:00 +17°C° 0.3 mm 5 m/s 735 mmHg 69%
    17:00 +17°C° 0.2 mm 4 m/s 735 mmHg 74%
    18:00 +17°C° 0.2 mm 3 m/s 735 mmHg 78%
    19:00 +16°C° 0.2 mm 2 m/s 735 mmHg 82%
    20:00 +14°C° 0 mm 2 m/s 735 mmHg 85%
    21:00 +12°C° 0 mm 1 m/s 736 mmHg 88%
    22:00 +10°C° 0 mm 1 m/s 736 mmHg 91%
    23:00 +9°C° 0 mm 0 m/s 736 mmHg 91%

    28 Mai, Mardi

    Heure Température Précipitation Vent Pression Humidité
    00:00 +9°C° 0 mm 0 m/s 736 mmHg 91%
    01:00 +8°C° 0 mm 0 m/s 736 mmHg 91%
    02:00 +9°C° 0 mm 0 m/s 736 mmHg 91%
    03:00 +9°C° 0 mm 0 m/s 735 mmHg 91%
    04:00 +9°C° 0 mm 0 m/s 735 mmHg 90%
    05:00 +10°C° 0.1 mm 0 m/s 735 mmHg 90%
    06:00 +11°C° 0.1 mm 1 m/s 735 mmHg 90%
    07:00 +12°C° 0.1 mm 1 m/s 735 mmHg 90%
    08:00 +13°C° 0.1 mm 1 m/s 735 mmHg 86%
    09:00 +14°C° 0.1 mm 1 m/s 735 mmHg 81%
    10:00 +15°C° 0.1 mm 2 m/s 735 mmHg 77%
    11:00 +15°C° 0.2 mm 2 m/s 735 mmHg 74%
    12:00 +16°C° 0.2 mm 1 m/s 735 mmHg 72%
    13:00 +16°C° 0.2 mm 1 m/s 735 mmHg 69%
    14:00 +16°C° 0.4 mm 2 m/s 735 mmHg 73%
    15:00 +15°C° 0.4 mm 2 m/s 735 mmHg 78%
    16:00 +14°C° 0.4 mm 3 m/s 735 mmHg 82%
    17:00 +13°C° 0.2 mm 3 m/s 735 mmHg 85%
    18:00 +14°C° 0.2 mm 2 m/s 736 mmHg 88%
    19:00 +13°C° 0.2 mm 2 m/s 736 mmHg 90%
    20:00 +11°C° 0.1 mm 3 m/s 737 mmHg 92%
    21:00 +10°C° 0.1 mm 3 m/s 737 mmHg 94%
    22:00 +10°C° 0.1 mm 3 m/s 738 mmHg 96%
    23:00 +9°C° 0.1 mm 3 m/s 738 mmHg 96%

    29 Mai, Mercredi

    Heure Température Précipitation Vent Pression Humidité
    00:00 +9°C° 0.1 mm 3 m/s 739 mmHg 95%
    01:00 +8°C° 0.1 mm 3 m/s 739 mmHg 95%
    02:00 +8°C° 0.1 mm 3 m/s 739 mmHg 95%
    03:00 +7°C° 0.1 mm 3 m/s 739 mmHg 95%
    04:00 +7°C° 0.1 mm 3 m/s 740 mmHg 94%
    05:00 +7°C° 0 mm 3 m/s 740 mmHg 93%
    06:00 +7°C° 0 mm 3 m/s 740 mmHg 91%
    07:00 +7°C° 0 mm 3 m/s 740 mmHg 89%
    08:00 +8°C° 0 mm 3 m/s 741 mmHg 84%
    09:00 +9°C° 0 mm 2 m/s 741 mmHg 79%
    10:00 +10°C° 0 mm 2 m/s 741 mmHg 73%
    11:00 +12°C° 0 mm 2 m/s 741 mmHg 72%
    12:00 +12°C° 0 mm 1 m/s 741 mmHg 70%
    13:00 +13°C° 0 mm 1 m/s 740 mmHg 69%
    14:00 +13°C° 0 mm 1 m/s 740 mmHg 66%
    15:00 +14°C° 0 mm 1 m/s 740 mmHg 64%
    16:00 +14°C° 0 mm 1 m/s 740 mmHg 61%
    17:00 +14°C° 0 mm 1 m/s 740 mmHg 65%
    18:00 +14°C° 0 mm 1 m/s 740 mmHg 68%
    19:00 +12°C° 0 mm 0 m/s 740 mmHg 72%
    20:00 +11°C° 0 mm 0 m/s 741 mmHg 76%
    21:00 +10°C° 0 mm 1 m/s 741 mmHg 81%
    22:00 +8°C° 0 mm 1 m/s 741 mmHg 85%
    23:00 +8°C° 0 mm 1 m/s 741 mmHg 87%
    Voir plus